Weather reports worldwide

Advertisment
Brodersby-Schönhagen, Germany (10042): temperature & dewpoint: 07.07.2020 06:00:00 - 13.07.2020 06:00:00 (CEST)Brodersby-Schönhagen, Germany (10042): temperature 5cm & temperature -5cm: 07.07.2020 06:00:00 - 13.07.2020 06:00:00 (CEST)Brodersby-Schönhagen, Germany (10042): temperature -20cm & temperature -100cm: 07.07.2020 06:00:00 - 13.07.2020 06:00:00 (CEST)Brodersby-Schönhagen, Germany (10042): wind speed & gusts: 07.07.2020 06:00:00 - 13.07.2020 06:00:00 (CEST)Brodersby-Schönhagen, Germany (10042): wind direction: 07.07.2020 06:00:00 - 13.07.2020 06:00:00 (CEST)Brodersby-Schönhagen, Germany (10042): reduced air pressure: 07.07.2020 06:00:00 - 13.07.2020 06:00:00 (CEST)Brodersby-Schönhagen, Germany (10042): visibility: 07.07.2020 06:00:00 - 13.07.2020 06:00:00 (CEST)Brodersby-Schönhagen, Germany (10042): sunshine duration: 07.07.2020 06:00:00 - 13.07.2020 06:00:00 (CEST)Brodersby-Schönhagen, Germany (10042): precipitation: 07.07.2020 06:00:00 - 13.07.2020 06:00:00 (CEST)
Date & Time tt [°C] td [°C] tt 5cm [°C] tt -5cm [°C] tt -20cm [°C] tt -100cm [°C] ff [km/h] ff [kn] fx [km/h] fx [kn] dd ppp [hPa] vv [km] sd [min] rr [mm]
13.07.2020 06:00:00 10,4 10,3 10,0 11,4 14,3 15,0 11 6 14 8 SW 1024,8 11 21 0,0
13.07.2020 05:00:00 9,7 9,7 7,7 11,6 14,6 15,0 6 3 8 5 WSW 1025,0 0,9 0 0,0
13.07.2020 04:00:00 9,7 9,7 7,8 11,9 14,9 15,0 6 3 10 6 WSW 1025,3 7 0 0,0
13.07.2020 03:00:00 9,6 9,5 6,9 12,4 15,2 15,0 5 3 9 5 WSW 1025,7 6 0 0,0
13.07.2020 02:00:00 10,1 10,0 7,1 12,9 15,6 15,0 6 4 9 5 SW 1025,8 16 0 0,0
13.07.2020 01:00:00 10,5 10,0 8,2 13,6 15,9 15,0 6 3 10 5 WSW 1026,1 31 0 0,0
13.07.2020 00:00:00 11,6 10,4 9,7 14,3 16,2 15,0 7 4 10 5 WSW 1026,2 57 0 0,0
12.07.2020 23:00:00 12,0 10,5 10,2 15,1 16,5 15,0 8 4 9 5 WSW 1026,6 55 0 0,0
12.07.2020 22:00:00 13,7 10,4 12,2 16,2 16,7 15,0 10 5 27 14 W 1026,5 70 43 0,0
12.07.2020 21:00:00 15,8 9,9 15,1 17,4 16,8 15,0 14 8 27 15 W 1026,2 74 47 0,0
12.07.2020 20:00:00 16,7 9,8 17,2 18,4 16,8 15,0 19 10 34 18 W 1026,1 75 60 0,0
12.07.2020 19:00:00 17,5 9,6 18,5 18,7 16,6 15,1 19 10 35 19 WNW 1026,2 75 18 0,0
12.07.2020 18:00:00 18,1 10,0 19,3 19,2 16,4 15,1 19 11 37 20 W 1026,4 74 4 0,0
12.07.2020 17:00:00 18,1 9,2 19,5 19,3 16,0 15,1 26 14 42 23 W 1026,4 75 28 0,0
12.07.2020 16:00:00 18,6 9,5 21,4 18,6 15,7 15,1 27 14 42 23 W 1026,7 57 29 0,0
12.07.2020 15:00:00 17,2 8,7 18,9 17,5 15,5 15,1 24 13 37 20 WNW 1026,8 75 0 0,0
12.07.2020 14:00:00 16,6 8,5 17,2 18,2 15,2 15,1 23 12 41 22 W 1026,7 75 8 0,0
12.07.2020 13:00:00 17,0 8,1 19,1 17,3 14,9 15,1 25 13 39 21 W 1026,5 75 0 0,0
12.07.2020 12:00:00 16,7 8,9 18,5 17,0 14,5 15,1 23 12 39 21 W 1026,5 75 9 0,0
12.07.2020 11:00:00 16,6 9,3 19,0 16,4 14,1 15,1 22 12 36 19 W 1026,3 59 34 0,0
12.07.2020 10:00:00 15,7 9,3 17,4 15,1 13,7 15,1 24 13 36 19 WNW 1026,2 63 48 0,0
12.07.2020 09:00:00 14,6 10,3 16,1 13,5 13,5 15,1 18 10 28 15 W 1026,0 59 19 0,0
12.07.2020 08:00:00 12,9 10,1 13,2 12,5 13,4 15,1 13 7 19 11 W 1025,6 45 45 0,0
12.07.2020 07:00:00 11,6 10,3 12,0 11,5 13,5 15,1 10 5 14 8 WSW 1025,0 38 49 0,0
12.07.2020 06:00:00 10,4 9,5 9,7 11,2 13,7 15,1 10 5 16 9 WSW 1025,0 35 0 0,0
12.07.2020 05:00:00 9,5 8,9 8,9 10,8 13,9 15,1 10 6 16 8 WSW 1024,7 28 0 0,0
12.07.2020 04:00:00 9,1 8,4 7,7 11,1 14,2 15,1 9 5 13 7 WSW 1024,6 34 0 0,0
12.07.2020 03:00:00 8,7 8,0 7,3 11,4 14,5 15,1 10 5 12 6 WSW 1024,7 33 0 0,0
12.07.2020 02:00:00 9,3 8,2 7,7 11,9 14,9 15,1 9 5 14 8 W 1024,7 38 0 0,0
12.07.2020 01:00:00 9,8 8,4 7,8 12,5 15,3 15,1 8 4 14 7 W 1024,8 48 0 0,0
12.07.2020 00:00:00 10,2 8,5 8,2 13,1 15,6 15,1 9 5 12 7 W 1024,6 50 0 0,0
11.07.2020 23:00:00 10,7 8,2 9,0 14,0 16,0 15,2 10 6 18 10 W 1024,4 67 0 0,0
11.07.2020 22:00:00 12,5 8,6 11,2 15,2 16,3 15,2 13 7 23 12 W 1023,8 62 36 0,0
11.07.2020 21:00:00 14,4 9,2 13,7 16,4 16,5 15,2 16 8 31 17 W 1023,5 64 28 0,0
11.07.2020 20:00:00 15,5 7,6 16,0 17,6 16,5 15,2 22 12 35 19 W 1023,1 70 48 0,0
11.07.2020 19:00:00 16,0 9,0 16,5 18,5 16,5 15,2 16 9 37 20 WNW 1022,7 75 37 0,0
11.07.2020 18:00:00 16,1 7,8 17,0 19,0 16,4 15,2 28 15 42 23 WNW 1022,5 72 42 0,0
11.07.2020 17:00:00 16,2 8,9 17,0 19,3 16,1 15,2 30 16 49 26 W 1022,1 75 37 0,0
11.07.2020 16:00:00 17,7 8,9 19,8 19,6 15,7 15,2 29 15 46 25 W 1021,8 49 48 0,0
11.07.2020 15:00:00 17,3 8,5 19,1 19,3 15,3 15,2 25 14 41 22 W 1021,3 66 37 0,0
11.07.2020 14:00:00 16,6 8,6 18,5 18,2 14,9 15,2 29 16 49 27 W 1021,1 39 50 0,0
11.07.2020 13:00:00 15,6 12,0 16,3 16,4 14,6 15,2 17 9 59 32 W 1020,9 69 6 0,4
11.07.2020 12:00:00 16,6 8,1 18,0 16,7 14,2 15,2 24 13 42 23 W 1020,3 65 40 0,0
11.07.2020 11:00:00 16,5 8,1 18,7 15,6 13,8 15,2 23 12 43 23 W 1020,0 75 34 0,0
11.07.2020 10:00:00 15,7 8,7 17,6 14,8 13,4 15,2 25 13 37 20 W 1019,5 75 50 0,0
11.07.2020 09:00:00 14,7 9,0 16,1 13,5 13,1 15,3 24 13 36 19 W 1019,2 57 60 0,0
11.07.2020 08:00:00 13,3 9,3 14,0 12,0 13,1 15,3 20 11 28 15 W 1018,6 61 59 0,0
11.07.2020 07:00:00 11,4 9,6 11,9 11,0 13,2 15,3 12 6 17 9 WSW 1018,3 55 52 0,0
11.07.2020 06:00:00 10,1 8,8 9,4 10,8 13,3 15,3 10 6 17 9 WSW 1017,8 51 26 0,0
11.07.2020 05:00:00 9,8 8,5 9,4 10,7 13,5 15,3 13 7 19 10 W 1017,4 55 0 0,0
11.07.2020 04:00:00 9,5 8,4 8,4 11,2 13,7 15,3 11 6 21 11 SW 1017,0 49 0 0,0
11.07.2020 03:00:00 10,5 8,8 9,7 11,3 14,0 15,3 15 8 26 14 W 1016,6 55 0 0,0
11.07.2020 02:00:00 10,0 8,1 9,1 11,4 14,2 15,3 15 8 24 13 WSW 1016,2 60 0 0,0
11.07.2020 01:00:00 10,3 8,4 9,5 11,8 14,6 15,3 14 8 23 12 W 1015,9 56 0 0,0
11.07.2020 00:00:00 10,9 8,6 10,1 12,3 14,9 15,3 17 9 26 14 WSW 1015,4 57 0 0,0
10.07.2020 23:00:00 10,6 8,7 9,5 13,0 15,2 15,3 12 7 17 9 W 1014,7 59 0 0,0
10.07.2020 22:00:00 11,6 8,9 10,5 14,0 15,5 15,3 13 7 31 17 W 1014,0 65 5 0,0
10.07.2020 21:00:00 13,7 9,0 13,2 15,3 15,6 15,3 18 10 38 21 W 1013,5 70 11 0,0
10.07.2020 20:00:00 14,8 9,2 15,5 16,3 15,5 15,3 21 11 34 18 W 1012,9 67 33 0,0
10.07.2020 19:00:00 15,3 9,7 16,2 16,9 15,4 15,3 19 10 35 19 W 1012,4 75 27 0,0
10.07.2020 18:00:00 13,2 11,3 13,7 16,4 15,2 15,3 11 6 44 24 WSW 1011,8 59 9 3,3
10.07.2020 17:00:00 14,7 10,3 16,0 17,2 14,9 15,4 14 7 20 11 WSW 1011,1 75 28 0,0
10.07.2020 16:00:00 13,2 10,6 13,3 15,2 14,8 15,4 9 5 18 10 W 1010,8 64 0 0,0
10.07.2020 15:00:00 11,9 9,8 11,8 14,7 14,7 15,4 15 8 24 13 NW 1010,0 49 0 0,7
10.07.2020 14:00:00 11,9 11,0 12,0 15,2 14,6 15,4 15 8 26 14 NW 1009,6 10 0 1,2
10.07.2020 13:00:00 13,3 9,9 14,5 15,2 14,5 15,4 9 5 18 10 NNW 1009,1 57 0 0,0
10.07.2020 12:00:00 13,2 10,9 13,8 14,8 14,3 15,4 15 8 22 12 NE 1008,3 55 0 0,2
10.07.2020 11:00:00 12,6 10,7 12,5 13,7 14,3 15,4 16 9 23 12 ENE 1008,3 18 0 1,9
10.07.2020 10:00:00 12,6 10,9 12,1 13,6 14,3 15,4 20 11 24 13 ENE 1008,2 22 0 1,6
10.07.2020 09:00:00 12,7 11,0 12,1 13,4 14,3 15,4 16 9 22 12 ENE 1008,5 21 0 1,1
10.07.2020 08:00:00 12,9 11,0 12,3 13,1 14,3 15,4 14 8 18 10 E 1008,6 19 0 2,9
10.07.2020 07:00:00 11,6 11,5 11,5 12,9 14,4 15,4 2 1 7 4 NNW 1009,1 6 0 2,2
10.07.2020 06:00:00 11,4 11,2 11,2 12,8 14,6 15,4 5 3 9 5 NW 1009,4 12 0 1,5
10.07.2020 05:00:00 11,0 10,6 10,6 12,8 14,7 15,4 3 2 4 2 SW 1009,7 17 0 0,0
10.07.2020 04:00:00 10,6 10,0 9,9 12,8 14,9 15,4 3 1 7 4 WNW 1010,0 30 0 0,0
10.07.2020 03:00:00 10,3 10,0 9,3 13,1 15,2 15,4 5 3 8 4 W 1010,5 17 0 0,0
10.07.2020 02:00:00 11,1 10,6 10,4 13,4 15,4 15,4 5 3 7 4 WSW 1011,0 32 0 0,0
10.07.2020 01:00:00 10,7 10,2 10,3 13,6 15,7 15,4 6 3 9 5 WSW 1011,4 38 0 0,0
10.07.2020 00:00:00 10,1 9,7 8,7 14,1 16,0 15,4 4 2 8 4 WSW 1011,7 28 0 0,0
09.07.2020 23:00:00 10,8 10,0 9,3 15,1 16,3 15,5 7 4 9 5 SW 1011,5 64 0 0,0
09.07.2020 22:00:00 12,3 10,6 10,7 16,3 16,5 15,5 5 3 8 4 SSW 1011,7 74 16 0,0
09.07.2020 21:00:00 14,3 8,7 13,2 17,7 16,5 15,5 0 0 6 3 N 1011,6 75 35 0,0
09.07.2020 20:00:00 14,2 9,2 15,2 18,2 16,4 15,5 4 2 7 4 E 1011,7 69 16 0,0
09.07.2020 19:00:00 14,2 9,8 15,4 18,8 16,2 15,5 4 2 11 6 E 1011,9 75 19 0,0
09.07.2020 18:00:00 14,3 10,1 16,7 18,8 15,9 15,5 8 4 12 7 NE 1011,8 71 12 0,0
09.07.2020 17:00:00 14,2 9,3 16,7 18,5 15,6 15,5 6 3 12 6 ENE 1012,2 72 0 0,0
09.07.2020 16:00:00 14,2 9,7 16,7 17,5 15,3 15,5 6 3 13 7 ESE 1012,3 75 0 0,0
09.07.2020 15:00:00 13,5 10,0 13,9 16,7 15,0 15,5 8 5 13 7 SE 1012,5 74 0 0,0
09.07.2020 14:00:00 13,4 10,3 13,7 15,9 14,9 15,5 11 6 16 9 SE 1012,8 37 0 -
09.07.2020 13:00:00 12,9 10,2 12,3 15,3 14,8 15,5 6 3 12 6 SSE 1013,2 21 0 -
09.07.2020 12:00:00 13,5 9,8 14,0 15,4 14,6 15,5 7 4 9 5 ESE 1013,4 64 0 -
09.07.2020 11:00:00 13,5 9,3 14,4 15,5 14,3 15,5 6 3 9 5 ESE 1013,8 72 0 0,0
09.07.2020 10:00:00 13,6 9,3 15,1 14,9 14,1 15,5 6 3 8 4 ESE 1014,0 52 0 0,0
09.07.2020 09:00:00 13,1 9,1 14,1 14,0 13,9 15,5 4 2 7 4 ESE 1014,3 28 9 0,0
09.07.2020 08:00:00 12,2 10,4 13,2 12,6 13,8 15,6 4 2 8 4 WSW 1014,7 44 19 0,0
09.07.2020 07:00:00 10,4 10,0 10,5 11,5 13,9 15,6 6 3 9 5 WSW 1014,8 24 4 0,0
09.07.2020 06:00:00 8,6 8,2 8,4 11,2 14,1 15,6 7 4 10 5 SW 1015,0 22 3 0,0
09.07.2020 05:00:00 8,9 8,4 8,1 11,3 14,3 15,6 8 4 11 6 SW 1014,9 29 0 0,0
09.07.2020 04:00:00 8,3 7,7 7,2 11,4 14,6 15,6 7 4 12 7 WSW 1015,3 29 0 0,0
09.07.2020 03:00:00 8,4 7,7 7,3 11,7 14,9 15,6 10 5 13 7 W 1015,5 45 0 0,0
09.07.2020 02:00:00 9,3 8,1 8,0 12,2 15,3 15,6 9 5 13 7 W 1015,4 49 0 0,0
09.07.2020 01:00:00 9,4 8,0 8,0 12,7 15,6 15,6 8 5 13 7 W 1015,6 59 0 0,0
09.07.2020 00:00:00 9,8 8,2 8,3 13,3 16,0 15,6 8 5 11 6 W 1015,8 75 0 0,0
08.07.2020 23:00:00 9,8 7,9 8,4 14,1 16,4 15,6 9 5 14 8 W 1015,5 60 0 0,0
08.07.2020 22:00:00 11,7 7,7 10,2 15,3 16,6 15,6 11 6 19 11 W 1015,4 75 30 0,0
08.07.2020 21:00:00 13,3 7,5 12,3 16,5 16,8 15,7 13 7 29 16 W 1015,0 72 16 0,0
08.07.2020 20:00:00 14,6 8,3 14,7 17,7 16,9 15,7 17 9 34 19 WNW 1014,6 71 29 0,0
08.07.2020 19:00:00 16,2 7,7 18,0 18,9 16,8 15,7 19 10 39 21 W 1014,4 71 52 0,0
08.07.2020 18:00:00 16,7 7,5 18,7 19,2 16,6 15,7 24 13 37 20 W 1014,3 55 42 0,0
08.07.2020 17:00:00 16,7 8,1 18,6 19,4 16,3 15,7 18 10 39 21 W 1014,3 64 44 0,0
08.07.2020 16:00:00 16,3 7,8 18,4 19,0 16,0 15,7 23 12 35 19 W 1014,3 75 27 0,0
08.07.2020 15:00:00 16,0 6,9 17,8 19,1 15,6 15,7 23 12 44 24 W 1014,1 75 41 0,0
08.07.2020 14:00:00 16,0 7,4 18,1 17,8 15,3 15,7 19 10 46 25 WNW 1013,9 57 28 0,0
08.07.2020 13:00:00 17,2 8,9 21,1 16,7 15,0 15,7 19 10 33 18 WNW 1013,6 68 12 0,0
08.07.2020 12:00:00 15,5 8,1 17,2 16,7 14,7 15,7 22 12 35 19 W 1013,4 64 22 0,0
08.07.2020 11:00:00 14,6 7,5 16,4 15,7 14,4 15,7 22 12 34 19 WNW 1013,2 59 16 0,0
08.07.2020 10:00:00 14,7 8,9 16,3 14,9 14,1 15,8 21 11 31 17 W 1012,8 51 37 0,0
08.07.2020 09:00:00 12,9 8,9 13,4 13,5 14,0 15,8 15 8 26 14 W 1012,9 55 1 0,0
08.07.2020 08:00:00 12,7 9,4 13,1 13,1 14,0 15,8 14 8 21 11 W 1012,6 75 8 0,0
08.07.2020 07:00:00 11,8 10,2 11,8 12,3 14,1 15,8 11 6 19 11 WSW 1012,5 62 18 0,0
08.07.2020 06:00:00 11,0 9,9 10,6 12,1 14,2 15,8 14 8 18 10 SW 1012,7 51 0 0,0
08.07.2020 05:00:00 10,7 9,8 10,2 12,1 14,3 15,8 11 6 20 11 SW 1012,8 50 0 0,0
08.07.2020 04:00:00 11,0 9,4 10,7 12,4 14,5 15,8 12 7 23 12 WSW 1013,0 57 0 0,0
08.07.2020 03:00:00 11,2 10,0 10,8 12,5 14,7 15,8 12 7 20 11 SW 1013,3 49 0 0,0
08.07.2020 02:00:00 10,6 9,7 10,2 12,5 14,9 15,8 13 7 16 9 SW 1013,5 51 0 0,0
08.07.2020 01:00:00 11,0 9,5 10,1 13,0 15,1 15,8 14 7 20 11 WSW 1013,6 58 0 0,0
08.07.2020 00:00:00 11,6 9,2 11,2 13,3 15,3 15,9 15 8 23 12 WSW 1013,8 68 0 0,0
07.07.2020 23:00:00 11,6 9,0 11,0 13,7 15,5 15,9 13 7 23 12 W 1013,6 60 0 0,0
07.07.2020 22:00:00 12,0 9,8 11,3 14,3 15,7 15,9 13 7 21 11 WSW 1013,6 63 0 0,0
07.07.2020 21:00:00 13,2 9,7 13,0 15,0 15,9 15,9 16 8 30 16 W 1013,6 50 0 0,0
07.07.2020 20:00:00 13,6 10,3 13,5 15,6 15,9 15,9 18 10 29 16 WSW 1013,7 70 0 0,0
07.07.2020 19:00:00 13,5 9,8 14,1 15,9 16,0 15,9 20 11 29 15 WSW 1013,8 51 1 0,0
07.07.2020 18:00:00 12,8 9,3 12,9 16,5 15,9 15,9 28 15 50 27 WNW 1014,1 24 7 0,0
07.07.2020 17:00:00 14,1 11,7 15,0 16,2 15,9 15,9 20 11 31 17 SW 1014,3 45 0 1,0
07.07.2020 16:00:00 13,4 11,7 12,7 16,1 15,9 15,9 21 11 35 19 SW 1014,7 6 0 0,1
07.07.2020 15:00:00 13,6 11,8 14,1 16,4 15,8 15,9 24 13 56 31 WSW 1014,9 63 0 2,2
07.07.2020 14:00:00 15,5 9,9 15,8 17,5 15,6 16,0 27 15 71 38 WSW 1014,7 52 10 1,0
07.07.2020 13:00:00 17,5 9,2 19,0 18,1 15,2 16,0 32 17 51 28 SW 1014,8 72 51 0,0
07.07.2020 12:00:00 16,8 9,0 19,2 16,6 14,9 16,0 27 15 42 23 SW 1015,5 45 12 0,0
07.07.2020 11:00:00 16,1 8,1 17,9 16,2 14,5 16,0 27 15 46 25 WSW 1016,1 59 39 0,0
07.07.2020 10:00:00 14,9 8,7 15,4 15,1 14,2 16,0 27 14 42 23 WSW 1016,2 56 44 0,0
07.07.2020 09:00:00 14,7 8,7 16,4 13,7 13,9 16,0 29 16 40 22 W 1016,3 36 60 0,0
07.07.2020 08:00:00 13,3 8,5 14,3 12,2 13,9 16,0 21 11 32 17 W 1016,3 53 60 0,0
07.07.2020 07:00:00 11,5 8,1 11,8 11,2 14,0 16,0 20 11 30 16 W 1016,2 49 60 0,0
07.07.2020 06:00:00 10,3 7,6 9,7 10,9 14,3 16,0 18 10 29 16 W 1015,7 46 29 0,0

tt = temperature
td = dewpoint
tt 5cm = temperature 5cm
tt -5cm = temperature -5cm
tt -20cm = temperature -20cm
tt -100cm = temperature -100cm
ff = wind speed
fx = gusts
dd = wind direction
ppp = reduced air pressure
vv = visibility
sd = sunshine duration
rr = precipitation

Next stations